Vertical_Velocity
-2 -2 -1 -2 -0 -2 1 -0 -0 1 -0 -1 -0 -0 -1 0 -0 0 0 0 0 -0 -0 0 -0 -0 -1 -1 0 1 1 -0 -1 -0 -0 1 0 -0 -0 -1 -1 -0 -1
-2 -1 1 -3 -0 -1 -1 -0 -0 1 0 -0 -1 -2 -1 -0 1 1 0 1 1 1 1 1 0 -0 -1 -1 -1 -1 -0 1 2 1 -0 -1 -0 -0 -1 -1 -0 -0 -1
-3 -1 -1 -1 -1 -1 -0 0 1 2 1 0 0 0 0 -0 -1 -1 -1 -1 -0 1 -0 -0 -0 0 -0 0 1 -0 -1 -1 0 0 0 1 0 0 1 -0 -1 -1 1
0 0 -1 -1 -1 -0 -1 -1 -1 0 0 1 1 0 -0 0 0 0 1 -0 -1 -1 1 0 -1 -1 -2 -1 -1 0 1 1 -1 -0 1 -0 0 -1 1 0 0 0 -1
0 -0 -0 1 1 -1 -1 -0 -1 -0 0 -0 0 0 1 0 1 1 0 1 -0 -1 -0 0 0 0 -1 -1 -1 -1 -1 1 2 1 -0 -1 -0 0 -0 -1 -0 -0 -1
-2 -0 0 1 -1 -0 -0 1 1 -1 -0 -1 -1 -1 -0 -0 -1 -1 -1 -1 -1 -0 -1 -1 -0 1 -0 -1 -1 -0 -1 -1 1 1 1 -0 0 0 0 1 -0 -0 -0
-1 -1 -1 1 -1 -0 -4 -2 -1 -1 -2 -1 -1 -1 -1 -1 -1 0 -0 -0 -0 -0 -0 0 -0 1 0 -0 -0 -1 1 0 1 1 0 -1 1 1 0 0 -0 -0 -0
-1 -1 -1 -1 1 -0 -1 -1 -2 -1 -1 -1 -1 -1 -1 -1 -1 -0 -0 -1 -1 -1 -1 -1 -0 -1 -1 1 1 -1 -1 0 -0 1 1 1 0 -0 0 1 0 -1 -1
-0 -1 -2 -1 -0 0 -0 0 0 -1 -1 -1 -1 -0 0 -1 -0 -1 -0 -1 -1 1 0 -0 -0 0 -0 -1 -1 -1 -2 -2 -1 -1 1 0 2 1 -0 -0 -0 0 1
-1 -1 -2 -2 -1 -1 -1 -0 -0 0 0 1 1 1 1 1 0 -0 -1 -0 -1 -1 -1 -1 -1 -0 -0 -1 -1 -1 -1 -0 -1 -0 -0 -0 -1 1 1 0 2 1 -0
-0 -1 -0 -1 -1 -0 0 -0 0 1 0 1 0 0 1 1 0 0 0 -0 -0 -1 -1 -1 -1 -1 -1 -0 -1 -1 -1 -0 -2 -1 -1 -1 -0 -0 1 1 1 1 1
0 -1 -0 -1 -1 -1 1 -1 0 0 -0 0 0 0 0 0 -0 0 -0 0 0 -0 -1 0 -0 -2 -0 0 -1 -2 -1 0 -1 -0 -1 -1 -0 -0 -0 1 -0 1 1
-0 0 -1 -0 -0 -0 1 0 -0 0 0 -0 -1 -0 0 -0 -1 -1 -0 -0 1 1 2 1 0 0 -0 -1 1 1 -2 -0 0 1 1 0 -0 -1 -1 0 -2 -2 -2
-1 0 -1 -0 -0 1 0 -1 -1 -1 -0 -1 -1 -1 0 0 0 -0 -0 -1 0 0 2 2 4 3 2 0 -1 -2 -0 -2 -0 1 1 1 0 2 -1 1 0 1 -1
-0 1 -0 -1 -0 1 1 0 -0 -0 -1 -1 -1 -1 -1 -1 1 1 0 0 0 -0 -1 1 0 0 1 1 2 -0 1 0 -0 -2 -2 0 0 -0 2 0 1 -1 3
-1 -1 -0 -1 0 1 -0 0 -1 -1 -1 -0 -0 -1 -2 -1 0 0 1 1 0 1 1 -0 0 1 1 -0 2 -0 -0 1 -1 -2 -1 -0 0 1 1 0 -1 2 2
-0 0 -2 -1 0 0 -0 0 -1 -1 -0 -0 -1 -1 -1 -0 -1 -1 -1 -1 -0 1 -0 -1 -2 -3 -2 -1 -0 1 1 2 0 1 1 -1 1 1 -2 3 -2 2 2
0 -0 -2 -0 -0 0 -0 -0 -1 0 -0 -2 -2 -1 -1 -1 -1 -0 -0 -0 -1 -1 0 1 -0 0 -2 -3 -1 -0 -1 -0 1 1 1 0 -2 0 -2 -7 -6 6 3
-0 -1 -0 -0 -0 -1 -0 -0 -1 -2 -1 -2 -2 -1 -1 -1 -1 -1 -0 -1 -1 -0 -2 -2 -1 -2 2 0 -2 1 1 1 -0 1 2 1 -1 0 -0 3 -4 3 11
-0 -1 -0 0 -0 -0 0 -1 -3 -3 -2 -2 -1 0 -1 -1 -1 -0 -0 -1 0 1 -2 -2 1 -0 -1 -1 2 0 3 2 1 -1 0 0 -1 -2 -3 -0 1 4 -3
2 2 1 1 -0 -0 -1 -2 -2 -2 -2 -3 -2 -2 -2 -2 -2 -1 1 1 -0 -0 -1 0 1 3 -4 -4 -3 -0 0 -1 1 -1 -2 -0 0 1 1 -0 -1 -2 9
-0 1 -0 -2 -2 -1 -0 -2 -1 -1 0 -0 1 -1 -0 -1 -1 -1 1 0 1 -1 -0 -0 1 3 -1 -4 -3 -4 1 6 1 -0 -1 -0 1 -0 2 1 -1 -0 4
-0 -1 -2 -2 -2 -1 -0 -1 -1 -2 -2 -1 -1 -2 1 -1 -0 -0 -1 -0 -0 0 0 -0 -0 0 1 -2 -5 -5 -5 -1 -2 5 -0 1 0 -2 -2 1 2 -2 -1
-1 -0 -0 -1 -0 0 -1 -1 1 -1 1 -1 -0 -2 0 -0 -0 0 -0 1 1 -1 0 -0 -0 -1 -0 -0 0 -4 -6 -7 -7 -9 13 2 3 4 -3 -3 -0 6 2
-1 -0 -1 -0 -1 -1 2 -1 -0 -1 -1 1 -0 -1 -1 0 -1 2 1 1 -1 0 -0 -0 -1 -1 0 -3 -2 -2 -3 -2 -3 -6 -4 3 4 4 3 -7 5 3 5
0 -1 -1 -2 -0 -0 1 -1 -0 0 -1 -1 -0 1 0 2 2 2 -1 0 -0 -0 0 -0 -1 -2 -1 -3 -3 -4 -3 -2 -2 -1 -4 -2 -2 2 2 -3 -3 -0 28
Height
3182 3182 3183 3183 3184 3184 3184 3185 3184 3184 3185 3184 3183 3183 3182 3182 3181 3180 3180 3179 3177 3175 3174 3171 3169 3168 3167 3167 3166 3166 3165 3164 3163 3162 3161 3161 3160 3158 3157 3156 3155 3154 3152
3182 3183 3184 3185 3185 3185 3185 3185 3185 3185 3185 3185 3185 3184 3183 3183 3182 3181 3180 3179 3178 3177 3175 3173 3171 3169 3168 3166 3166 3165 3165 3164 3164 3162 3161 3160 3159 3159 3158 3156 3155 3154 3153
3182 3184 3185 3186 3186 3186 3186 3186 3186 3186 3186 3185 3185 3184 3184 3183 3182 3181 3181 3180 3179 3178 3176 3174 3172 3170 3169 3168 3166 3165 3164 3164 3163 3163 3161 3160 3159 3158 3157 3156 3154 3154 3153
3183 3184 3186 3186 3186 3187 3187 3187 3186 3186 3186 3185 3185 3184 3184 3183 3182 3181 3180 3180 3179 3178 3176 3175 3173 3172 3170 3168 3167 3166 3165 3164 3163 3162 3161 3160 3159 3158 3157 3156 3155 3154 3152
3184 3185 3185 3186 3186 3187 3187 3187 3187 3186 3186 3185 3184 3184 3184 3183 3182 3181 3180 3179 3178 3177 3176 3175 3173 3172 3170 3169 3168 3166 3165 3164 3163 3162 3160 3159 3158 3158 3156 3155 3154 3153 3152
3184 3184 3185 3185 3186 3186 3186 3186 3186 3186 3185 3185 3184 3184 3183 3183 3182 3181 3180 3179 3177 3176 3175 3174 3173 3171 3170 3168 3167 3166 3165 3164 3163 3162 3160 3158 3157 3156 3155 3155 3153 3153 3151
3184 3185 3185 3185 3185 3185 3185 3185 3185 3185 3185 3184 3184 3183 3183 3182 3181 3180 3179 3178 3176 3175 3174 3173 3172 3170 3169 3168 3166 3165 3164 3162 3161 3161 3159 3157 3156 3156 3155 3154 3153 3151 3151
3184 3184 3185 3185 3185 3185 3185 3185 3184 3183 3183 3183 3182 3181 3181 3180 3179 3178 3177 3176 3174 3173 3172 3171 3170 3169 3168 3166 3165 3163 3162 3161 3160 3159 3158 3156 3155 3154 3153 3152 3152 3151 3149
3183 3183 3183 3184 3184 3184 3184 3183 3183 3182 3181 3180 3179 3178 3178 3177 3176 3175 3174 3173 3172 3171 3169 3168 3167 3166 3165 3164 3163 3161 3160 3159 3158 3157 3156 3155 3153 3152 3151 3150 3150 3149 3148
3182 3181 3181 3181 3182 3181 3182 3181 3180 3180 3179 3178 3177 3176 3175 3174 3172 3172 3170 3169 3169 3167 3166 3165 3164 3163 3162 3161 3160 3158 3157 3156 3155 3154 3154 3153 3152 3151 3150 3148 3147 3147 3147
3180 3180 3180 3180 3180 3179 3179 3179 3178 3177 3176 3175 3174 3173 3172 3170 3169 3168 3167 3166 3165 3164 3163 3162 3161 3159 3158 3157 3156 3155 3155 3153 3152 3151 3151 3150 3150 3148 3148 3147 3146 3144 3143
3178 3178 3178 3178 3178 3177 3177 3176 3175 3174 3173 3171 3170 3169 3168 3167 3166 3164 3163 3162 3161 3159 3158 3157 3156 3154 3153 3152 3151 3150 3150 3148 3148 3147 3147 3146 3146 3145 3145 3144 3143 3142 3141
3177 3177 3177 3177 3176 3175 3175 3173 3172 3171 3170 3168 3167 3165 3164 3162 3161 3160 3159 3157 3155 3154 3152 3151 3150 3148 3147 3145 3145 3144 3144 3143 3143 3142 3141 3140 3140 3140 3140 3141 3140 3139 3138
3175 3175 3175 3174 3174 3172 3172 3170 3169 3168 3166 3165 3163 3161 3160 3158 3156 3155 3153 3151 3149 3147 3146 3145 3144 3142 3141 3140 3138 3138 3137 3137 3136 3135 3136 3135 3135 3135 3135 3135 3135 3135 3136
3173 3172 3172 3172 3171 3170 3169 3167 3166 3164 3162 3161 3159 3156 3154 3152 3151 3149 3147 3144 3142 3140 3138 3138 3136 3135 3134 3132 3131 3130 3130 3129 3129 3128 3128 3128 3128 3128 3128 3129 3129 3130 3130
3170 3170 3170 3169 3168 3166 3165 3164 3162 3160 3158 3156 3153 3150 3148 3145 3143 3142 3140 3137 3135 3133 3130 3129 3127 3126 3125 3123 3123 3122 3121 3120 3120 3119 3120 3120 3120 3121 3121 3121 3121 3122 3123
3167 3167 3166 3165 3164 3162 3161 3159 3158 3155 3153 3150 3147 3145 3141 3138 3136 3133 3131 3129 3126 3124 3122 3120 3118 3117 3116 3115 3113 3113 3111 3110 3110 3110 3109 3110 3111 3111 3111 3112 3113 3114 3116
3164 3163 3162 3161 3160 3158 3156 3155 3152 3149 3147 3144 3141 3138 3134 3130 3127 3125 3123 3120 3118 3116 3114 3111 3109 3108 3106 3105 3103 3102 3101 3100 3099 3099 3098 3099 3100 3102 3102 3103 3104 3105 3106
3160 3159 3158 3156 3155 3153 3151 3149 3146 3143 3140 3136 3133 3129 3126 3123 3120 3118 3115 3112 3110 3109 3106 3104 3102 3099 3099 3097 3093 3091 3090 3088 3088 3087 3086 3087 3087 3089 3091 3093 3095 3095 3092
3156 3155 3153 3151 3149 3147 3145 3143 3140 3136 3132 3128 3125 3122 3119 3116 3113 3111 3108 3105 3103 3101 3099 3097 3095 3094 3091 3088 3086 3083 3081 3079 3077 3076 3076 3075 3075 3074 3075 3078 3081 3082 3084
3152 3150 3148 3145 3143 3141 3139 3136 3133 3129 3125 3121 3118 3115 3112 3109 3107 3104 3101 3098 3096 3095 3093 3092 3090 3089 3087 3082 3080 3077 3075 3072 3070 3067 3066 3064 3063 3062 3063 3065 3067 3070 3072
3146 3144 3142 3140 3137 3135 3132 3129 3126 3123 3120 3116 3113 3109 3106 3103 3100 3098 3096 3093 3092 3091 3090 3088 3087 3086 3083 3077 3073 3069 3067 3070 3063 3060 3057 3054 3051 3049 3050 3051 3053 3058 3062
3140 3138 3136 3133 3131 3128 3126 3123 3120 3117 3114 3111 3107 3103 3100 3097 3096 3095 3094 3092 3091 3089 3087 3086 3083 3081 3080 3075 3069 3063 3058 3054 3054 3058 3051 3045 3042 3040 3040 3041 3044 3046 3051
3134 3132 3129 3127 3125 3123 3121 3118 3115 3112 3109 3105 3101 3098 3096 3094 3094 3093 3092 3090 3089 3088 3086 3084 3081 3077 3075 3072 3068 3062 3056 3050 3043 3040 3046 3038 3035 3035 3035 3035 3036 3040 3043
3129 3127 3125 3123 3120 3118 3116 3114 3110 3107 3104 3100 3097 3095 3094 3093 3092 3091 3090 3089 3088 3086 3084 3081 3078 3075 3071 3067 3063 3061 3055 3049 3042 3036 3030 3033 3030 3030 3030 3031 3032 3034 3036
3125 3122 3120 3118 3115 3114 3111 3109 3106 3102 3099 3096 3094 3093 3092 3092 3090 3090 3089 3088 3086 3084 3081 3079 3076 3073 3069 3065 3061 3056 3049 3045 3041 3034 3028 3025 3025 3027 3026 3025 3029 3030 3031